Location: 81360 Arifat, France
(43.7204°N, 2.3408°E)
Time: 07:01:21
(UTC+01:00)

Transit 2A Rocket - All Passes

Search period start: 07 December 2025 00:00
Search period end: 17 December 2025 00:00
Orbit: 580 x 903 km, 66.7° (Epoch: 06 December)

Date Brightness Start Highest point End Pass type
(mag) Time Alt. Az. Time Alt. Az. Time Alt. Az.
07 Dec - 09:20:39 10° SSE 09:24:28 20° ESE 09:28:30 10° ENE daylight
07 Dec - 11:00:44 10° SW 11:06:14 70° NW 11:12:11 10° NNE daylight
07 Dec - 12:46:04 10° WNW 12:49:50 17° NW 12:53:44 10° N daylight
07 Dec - 18:00:19 10° NNW 18:05:23 27° NE 18:10:17 10° E visible
07 Dec - 19:42:23 10° NW 19:48:22 68° WSW 19:54:01 10° SSE visible
08 Dec - 08:39:01 10° ESE 08:39:31 10° E 08:40:01 10° E daylight
08 Dec - 10:15:17 10° SSW 10:20:44 72° ESE 10:26:39 10° NE daylight
08 Dec - 11:59:09 10° W 12:03:47 25° NW 12:08:40 10° NNE daylight
08 Dec - 17:15:13 10° N 17:19:22 19° NE 17:23:26 10° E daylight
08 Dec - 18:56:50 10° NNW 19:02:53 74° ENE 19:08:37 10° SE visible
08 Dec - 20:40:36 10° WNW 20:44:38 19° WSW 20:48:31 10° SSW visible
09 Dec - 09:30:19 10° S 09:35:25 41° ESE 09:40:53 10° NE daylight
09 Dec - 11:12:42 10° WSW 11:17:54 37° NW 11:23:26 10° NNE daylight
09 Dec - 13:00:13 10° NW 13:02:11 12° NNW 13:04:09 10° N daylight
09 Dec - 16:30:20 10° N 16:33:12 13° NNE 16:36:02 10° ENE daylight
09 Dec - 18:11:26 10° NNW 18:17:14 46° NE 18:22:46 10° ESE visible
09 Dec - 19:54:14 10° NW 19:59:31 33° WSW 20:04:31 10° S visible
10 Dec - 08:45:59 10° SSE 08:50:14 24° ESE 08:54:45 10° NE daylight
10 Dec - 10:26:41 10° SW 10:32:10 60° NW 10:38:05 10° NNE daylight
10 Dec - 12:12:28 10° WNW 12:15:56 16° NNW 12:19:30 10° N daylight
10 Dec - 17:26:09 10° NNW 17:31:25 30° NE 17:36:29 10° ESE daylight
10 Dec - 19:08:22 10° NW 19:14:15 57° WSW 19:19:46 10° SSE visible
11 Dec - 08:02:52 10° SE 08:05:14 13° E 08:07:39 10° ENE daylight
11 Dec - 09:41:05 10° SSW 09:46:37 84° ESE 09:52:35 10° NNE daylight
11 Dec - 11:25:24 10° W 11:29:50 22° NW 11:34:28 10° NNE daylight
11 Dec - 16:40:59 10° N 16:45:26 21° NE 16:49:46 10° E daylight
11 Dec - 18:22:44 10° NNW 18:28:48 86° NE 18:34:29 10° SSE visible
11 Dec - 20:06:59 10° WNW 20:10:22 16° WSW 20:13:40 10° SW visible
12 Dec - 08:55:58 10° S 09:01:14 49° ESE 09:06:55 10° NE daylight
12 Dec - 10:38:49 10° WSW 10:43:54 33° NW 10:49:16 10° NNE daylight
12 Dec - 12:27:06 10° NW 12:28:19 11° NNW 12:29:33 10° N daylight
12 Dec - 15:56:00 10° N 15:59:18 15° NNE 16:02:33 10° ENE daylight
12 Dec - 17:37:17 10° NNW 17:43:11 53° NE 17:48:47 10° SE visible
12 Dec - 19:20:20 10° NW 19:25:18 28° WSW 19:30:01 10° SSW visible
13 Dec - 08:11:23 10° SSE 08:16:01 28° ESE 08:20:55 10° NE daylight
13 Dec - 09:52:39 10° SW 09:58:07 52° NW 10:03:57 10° NNE daylight
13 Dec - 11:38:55 10° WNW 11:42:02 14° NNW 11:45:13 10° N daylight
13 Dec - 15:11:32 10° N 15:13:02 11° NNE 15:14:31 10° NE daylight
13 Dec - 16:51:58 10° NNW 16:57:25 34° NE 17:02:37 10° ESE daylight
13 Dec - 18:34:20 10° NW 18:40:04 48° WSW 18:45:27 10° S visible
14 Dec - 07:27:43 10° SE 07:30:56 16° ESE 07:34:16 10° ENE visible
14 Dec - 09:06:55 10° SSW 09:12:30 84° WNW 09:18:30 10° NNE daylight
14 Dec - 10:51:40 10° W 10:55:53 20° NW 11:00:15 10° N daylight
14 Dec - 16:06:45 10° NNW 16:11:29 23° NE 16:16:02 10° E daylight
14 Dec - 17:48:39 10° NNW 17:54:41 82° WSW 18:00:20 10° SSE visible
14 Dec - 19:33:35 10° WNW 19:36:05 13° W 19:38:31 10° SW visible
15 Dec - 08:21:38 10° SSW 08:27:03 58° ESE 08:32:53 10° NE daylight
15 Dec - 10:04:56 10° WSW 10:09:53 29° NW 10:15:05 10° NNE daylight
15 Dec - 15:21:42 10° N 15:25:23 16° NNE 15:29:00 10° ENE daylight
15 Dec - 17:03:09 10° NNW 17:09:07 61° NE 17:14:44 10° SE daylight
15 Dec - 18:46:28 10° NW 18:51:03 24° WSW 18:55:25 10° SSW visible
16 Dec - 07:36:51 10° S 07:41:47 33° ESE 07:47:00 10° NE visible
16 Dec - 09:18:39 10° WSW 09:24:03 45° NW 09:29:48 10° NNE daylight
16 Dec - 11:05:25 10° NW 11:08:07 13° NNW 11:10:52 10° N daylight
16 Dec - 14:36:59 10° N 14:39:09 12° NNE 14:41:17 10° NE daylight
16 Dec - 16:17:47 10° NNW 16:23:23 38° NE 16:28:43 10° ESE daylight
16 Dec - 18:00:20 10° NW 18:05:52 41° WSW 18:11:04 10° S visible
